User: anonymous   Login
Location: Hopkins Observatory
(42.6965°N, 73.1843°W)
Time: 11:18:40
(UTC-05:00)
Language:

UOSAT-12 - Orbit

View from above orbital plane
View from above orbital plane
View from above satellite
View from above satellite

Ground track
Ground track

The orbit data is extracted from the following two-line orbital elements,

1 25693U 99021A   16339.47527549 -.00000027  00000-0  15064-4 0  9991
2 25693  64.5567   5.7668 0015248 328.6825  31.3370 14.80701242951333
Epoch (UTC): 04 December 2016 11:24:23
Eccentricity: 0.0015248
inclination: 64.5567°
perigee height: 616 km
apogee height: 638 km
right ascension of ascending node: 5.7668°
argument of perigee: 328.6825°
revolutions per day: 14.80701242
mean anomaly at epoch: 31.3370°
orbit number at epoch: 95133

The dashed part of the orbit path shows where the satellite is in the earth's shadow,  

DLR